www.pogodaiklimat.ru

Погода и климат >> Архив погоды >> Финляндия >> Инари Раджайосеппи


ПОГОДА в Инари Раджайосеппи

  • Прогноз погоды в Инари Раджайосеппи
  • Монитор погоды в Инари Раджайосеппи

АРХИВ ПОГОДЫ в Инари Раджайосеппи

Время (UTC), дата Ветер
(напр.,м/с)
 
Видим.   Явления Облачность Т
(С)
Тd
(С)
f
(%)
Тe
(С)
Тes
(С)
Комфортность P
(гПа)
Po
(гПа)
Тmin
(С)
Tmax
(С)
R
(мм)
R24
(мм)
S
(см)
01 10.07 СВ 2-5
{7}
н/о н/о +5.5 +4.0 90 +3 +3 1017.9 986.6
02 10.07 СВ 3 н/о н/о +5.5 +3.2 85 +2 +2 1017.9 986.6
03 10.07 СВ 3-6
{7}
н/о н/о +4.9 +3.3 89 +1 +1 1018.3 986.9
04 10.07 СВ 3-6
{7}
н/о н/о +4.6 +3.6 93 +1 +1 1018.2 986.8
05 10.07 СВ 3 н/о н/о +4.7 +2.9 88 +1 +1 1018.2 986.8
06 10.07 СВ 3-6
{7}
н/о н/о +5.4 +3.1 85 +2 +2 1018.1 986.8 +4.5 +10.9
07 10.07 СВ 4 н/о н/о +6.4 +2.8 78 +3 +3 1018.1 986.9
08 10.07 С 2 н/о н/о +6.5 +3.2 79 +4 +4 1018.2 987.0
09 10.07 С 3-5
{7}
н/о н/о +7.2 +3.4 77 +4 +4 1017.9 986.7
10 10.07 С 2 н/о н/о +7.8 +3.8 76 +6 +6 1017.6 986.5
11 10.07 С 3 н/о н/о +8.7 +3.7 71 +6 +6 1017.3 986.3
12 10.07 С 2-5
{7}
н/о н/о +8.9 +2.4 64 +7 +7 1017.2 986.3
13 10.07 С 3-6
{6}
н/о н/о +9.0 +2.7 65 +7 +7 1017.0 986.1
14 10.07 СВ 3-7
{7}
н/о н/о +9.2 +2.0 61 +7 +7 1016.8 985.9
15 10.07 СВ 2-5
{6}
н/о н/о +9.5 +2.3 61 +8 +8 1016.5 985.7
16 10.07 СВ 3 н/о н/о +9.5 +2.4 61 +8 +8 1016.3 985.4
17 10.07 СВ 2-5
{5}
н/о н/о +8.7 +2.2 64 +7 +7 1016.3 985.4
18 10.07 СВ 2-4
{5}
н/о н/о +8.3 +2.1 65 +7 +7 1016.0 985.0 +5.4 +10.1
19 10.07 С 1 н/о н/о +8.0 +2.7 69 +7 +7 1015.9 985.0
20 10.07 С 2-3
{4}
н/о н/о +7.7 +3.1 73 +6 +6 1015.7 984.7
21 10.07 С 2-4
{4}
н/о н/о +6.7 +3.1 78 +5 +5 1015.6 984.5
22 10.07 СВ 3 н/о н/о +6.1 +3.2 82 +3 +3 1015.4 984.2
23 10.07 В 3 н/о н/о +4.6 +2.6 87 +1 +1 1015.4 984.1
00 11.07 В 2-4
{5}
н/о н/о +4.3 +2.7 89 +1 +1 1015.4 984.0
01 11.07 В 1 н/о н/о +4.1 +2.5 89 +3 +3 1015.2 983.9
02 11.07 СВ 1-3
{4}
н/о н/о +4.2 +2.5 89 +3 +3 1015.2 983.8
03 11.07 В 2-2
{3}
н/о н/о +4.3 +2.2 86 +2 +2 1014.8 983.4
04 11.07 СВ 2 н/о н/о +4.6 +2.1 84 +2 +2 1014.8 983.5
05 11.07 СВ 3 н/о н/о +4.9 +2.0 81 +1 +1 1014.5 983.3
06 11.07 СВ 2-4
{4}
н/о н/о +5.3 +2.3 81 +3 +3 1014.4 983.2 +4.1 +8.8
07 11.07 С 2-4
{4}
н/о н/о +6.4 +2.4 76 +4 +4 1014.3 983.2
08 11.07 В 2-5
{5}
н/о н/о +7.2 +2.1 70 +5 +5 1014.1 983.0
09 11.07 СВ 3-7
{7}
н/о н/о +9.2 +2.2 62 +7 +7 1013.6 982.8
10 11.07 СВ 4 н/о н/о +10.6 +1.4 53 +8 +8 1013.3 982.7
11 11.07 СВ 3-6
{7}
н/о н/о +11.3 +1.8 52 +10 +10 1012.9 982.4
12 11.07 СВ 3-6
{6}
н/о н/о +12.6 +1.7 47 +11 +11 1012.5 982.2
13 11.07 В 3 н/о н/о +13.0 +1.3 45 +12 +12 1012.3 982.0
14 11.07 С 3 н/о н/о +13.6 +1.3 43 +13 +13 1012.2 982.0
15 11.07 СВ 3-7
{8}
н/о н/о +13.4 +1.3 44 +13 +13 1012.2 981.9
16 11.07 СВ 4 н/о н/о +13.1 +1.3 45 +12 +12 1012.1 981.8
17 11.07 СВ 3 н/о н/о +12.7 +1.2 45 +12 +12 1012.1 981.8
18 11.07 СВ 3-5
{6}
н/о н/о +12.1 +1.0 47 +11 +11 1012.3 981.9 +5.2 +13.9
19 11.07 С 3 н/о н/о +11.1 +1.6 52 +10 +10 1012.5 982.0
20 11.07 С 2 н/о н/о +9.3 +1.6 59 +8 +8 1012.9 982.1
21 11.07 С 2-4
{6}
н/о н/о +7.2 +1.6 68 +5 +5 1013.3 982.4
22 11.07 СЗ 2 н/о н/о +5.9 +1.8 75 +4 +4 1013.4 982.3
23 11.07 СВ 2 н/о н/о +4.7 +1.1 77 +2 +2 1013.6 982.3
00 12.07 СЗ 2-4
{5}
н/о н/о +3.8 +1.5 85 +1 +1 1013.7 982.3
01 12.07 СВ 2 н/о н/о +3.6 +1.9 89 +1 +1 1013.8 982.4
02 12.07 С 2 н/о н/о +3.9 +2.1 88 +1 +1 1013.8 982.5
03 12.07 С 2-3
{4}
н/о н/о +4.9 +2.3 83 +2 +2 1013.5 982.3
04 12.07 С 2-4
{5}
н/о н/о +6.1 +2.4 77 +4 +4 1013.4 982.3
05 12.07 СЗ 3-5
{5}
н/о н/о +7.7 +2.5 70 +5 +5 1013.2 982.2
06 12.07 С 3-7
{7}
н/о н/о +9.8 +1.7 57 +8 +8 1012.7 982.0 +3.6 +12.1
07 12.07 С 4-8
{9}
н/о н/о +11.3 +1.2 50 +9 +9 1012.4 981.9
08 12.07 С 4 н/о н/о +11.8 +0.7 46 +10 +10 1012.2 981.7
09 12.07 СВ 4-8
{11}
н/о н/о +13.4 -1.0 37 +12 +12 1011.8 981.5
10 12.07 СВ 6 н/о н/о +13.3 -1.3 36 +11 +11 1011.7 981.4
11 12.07 С 5 н/о н/о +13.8 -1.7 34 +12 +12 1011.5 981.3
12 12.07 СВ 5-10
{11}
н/о н/о +14.3 -1.9 33 +13 +13 1011.2 981.1
13 12.07 С 5-7
{11}
н/о н/о +14.8 -1.1 34 +14 +14 1011.4 981.3
14 12.07 С 5 н/о н/о +14.1 -1.4 34 +13 +13 1011.6 981.4
15 12.07 С 4-8
{10}
н/о н/о +14.1 -1.3 35 +13 +13 1011.4 981.2
16 12.07 С 4 н/о н/о +13.7 +0.2 40 +13 +13 1011.7 981.4
17 12.07 СВ 4-8
{8}
н/о н/о +12.9 +1.5 46 +11 +11 1011.8 981.5
18 12.07 С 4-6
{9}
н/о н/о +11.3 +1.9 52 +9 +9 1012.4 981.9 +9.8 +15.0
19 12.07 С 4-7
{7}
н/о н/о +10.3 +1.7 55 +8 +8 1012.6 982.0
20 12.07 С 3 н/о н/о +8.7 +1.4 60 +7 +7 1013.4 982.5
21 12.07 С 2-3
{6}
н/о н/о +6.8 +1.0 66 +5 +5 1013.9 982.8
22 12.07 СВ 3 н/о н/о +5.5 +1.9 78 +2 +2 1014.0 982.8
23 12.07 С 2 н/о н/о +4.6 +2.6 87 +2 +2 1014.4 983.1
00 13.07 С 2-3
{5}
н/о н/о +4.6 +2.7 87 +2 +2 1014.5 983.2
01 13.07 С 2 н/о н/о +4.7 +2.7 87 +2 +2 1014.7 983.4
02 13.07 С 2-4
{5}
н/о н/о +4.7 +2.8 87 +2 +2 1014.8 983.5
03 13.07 С 2-5
{6}
н/о н/о +4.6 +3.3 91 +2 +2 1014.8 983.5
04 13.07 С 2 н/о н/о +4.7 +3.7 93 +2 +2 1015.0 983.7
05 13.07 С 2 н/о н/о +4.9 +4.1 95 +2 +2 1015.0 983.8
06 13.07 С 3-5
{6}
н/о н/о +5.8 +4.4 91 +2 +2 1014.9 983.7 +4.5 +11.3
07 13.07 С 3-5
{6}
н/о н/о +6.5 +4.3 86 +3 +3 1014.8 983.7
08 13.07 С 3-6
{6}
н/о н/о +6.8 +4.6 86 +4 +4 1014.9 983.9
09 13.07 С 2-5
{6}
н/о н/о +6.7 +5.1 90 +4 +4 1015.1 984.0
10 13.07 С 2 н/о н/о +7.4 +5.0 85 +5 +5 1015.0 983.9
11 13.07 С 3-5
{6}
н/о н/о +7.5 +5.0 84 +5 +5 1014.9 983.9
12 13.07 СВ 2 н/о н/о +7.8 +5.6 86 +6 +6 1014.7 983.8
13 13.07 СВ 2 н/о н/о +8.5 +5.6 82 +7 +7 1014.7 983.8
14 13.07 В 1 н/о н/о +8.5 +5.6 82 +8 +8 1014.7 983.8
15 13.07 ЮВ 2-4
{4}
н/о н/о +9.1 +6.1 81 +7 +7 1014.6 983.8
16 13.07 ЮВ 1 н/о н/о +9.1 +6.1 81 +9 +9 1014.5 983.7
17 13.07 В 1 н/о н/о +9.1 +6.3 83 +9 +9 1014.6 983.8
18 13.07 ЮВ 2-4
{4}
н/о н/о +8.6 +6.4 86 +7 +7 1014.6 983.7 +5.7 +9.5
19 13.07 В 1-2
{3}
н/о н/о +8.2 +6.4 88 +7 +7 1014.6 983.7
20 13.07 В 1-2
{2}
н/о н/о +7.9 +6.7 92 +7 +7 1014.6 983.7
21 13.07 СВ 1-1
{1}
н/о н/о +7.5 +6.7 95 +6 +6 1014.6 983.6
22 13.07 С 2 н/о н/о +7.5 +6.5 93 +5 +5 1014.6 983.6
23 13.07 С 2 н/о н/о +6.3 +4.7 89 +4 +4 1014.9 983.8
00 14.07 С 3-6
{6}
н/о н/о +5.5 +4.2 91 +2 +2 1015.2 984.0
01 14.07 СВ 2 н/о н/о +4.9 +4.0 94 +2 +2 1015.4 984.1
02 14.07 С 2 н/о н/о +5.0 +3.8 92 +2 +2 1015.6 984.3
03 14.07 СВ 2-3
{5}
н/о н/о +5.5 +3.7 88 +3 +3 1015.6 984.4
04 14.07 СВ 3 н/о н/о +5.9 +3.2 83 +3 +3 1015.5 984.3
05 14.07 С 2-5
{6}
н/о н/о +6.6 +2.9 77 +4 +4 1015.4 984.3
06 14.07 СВ 2-5
{5}
н/о н/о +6.9 +3.0 76 +5 +5 1015.2 984.1 +4.9 +8.6
07 14.07 СВ 3 н/о н/о +7.6 +3.1 73 +5 +5 1015.1 984.1
08 14.07 СВ 2-5
{5}
н/о н/о +8.7 +3.5 70 +7 +7 1015.0 984.2
09 14.07 С 2-4
{4}
н/о н/о +9.6 +3.8 67 +8 +8 1014.7 984.0
10 14.07 С 3 н/о н/о +9.3 +3.8 68 +7 +7 1014.7 983.9
11 14.07 СЗ 3 н/о н/о +9.7 +3.7 66 +8 +8 1014.5 983.8
12 14.07 С 3-6
{8}
н/о н/о +9.9 +3.3 63 +8 +8 1014.6 983.8
13 14.07 С 2-4
{7}
н/о н/о +9.8 +3.6 65 +9 +9 1014.5 983.7
14 14.07 С 2-8
{8}
н/о н/о +10.5 +2.8 59 +9 +9 1014.1 983.5
15 14.07 СВ 2-4
{5}
н/о н/о +10.4 +2.4 58 +9 +9 1014.3 983.7
16 14.07 С 2 н/о н/о +9.6 +2.2 60 +8 +8 1014.4 983.7
17 14.07 СВ 2 н/о н/о +9.5 +2.6 62 +8 +8 1014.4 983.6
18 14.07 СВ 2-4
{4}
н/о н/о +8.9 +2.2 63 +7 +7 1014.3 983.5 +6.8 +11.2
19 14.07 СВ 2-3
{4}
н/о н/о +8.1 +2.0 65 +6 +6 1014.3 983.4
20 14.07 С 1 н/о н/о +7.2 +2.3 71 +7 +7 1014.4 983.4
21 14.07 С 1-2
{2}
н/о н/о +7.3 +2.1 70 +7 +7 1014.4 983.4
22 14.07 С 1-2
{2}
н/о н/о +7.0 +2.5 73 +6 +6 1014.4 983.4
23 14.07 СВ 2 н/о н/о +7.0 +3.2 77 +5 +5 1014.2 983.2
00 15.07 СВ 2-3
{4}
н/о н/о +6.7 +3.9 82 +4 +4 1014.3 983.2
01 15.07 С 2 н/о н/о +6.4 +3.9 84 +4 +4 1014.3 983.2
02 15.07 С 1-3
{3}
н/о н/о +6.7 +4.2 84 +6 +6 1014.4 983.3
03 15.07 В 1-3
{4}
н/о н/о +7.1 +4.5 84 +6 +6 1014.3 983.3
04 15.07 В 1-3
{3}
н/о н/о +7.7 +4.4 80 +7 +7 1014.3 983.3
05 15.07 СВ 1 н/о н/о +8.2 +4.2 76 +8 +8 1014.2 983.3
06 15.07 В 2-5
{5}
н/о н/о +9.6 +3.5 66 +8 +8 1013.9 983.2 +6.4 +9.6
07 15.07 В 3-7
{8}
н/о н/о +9.5 +2.4 61 +8 +8 1013.8 983.0
08 15.07 В 2-4
{6}
н/о н/о +9.6 +1.5 57 +8 +8 1013.9 983.2
09 15.07 СВ 2-4
{5}
н/о н/о +10.4 +1.4 54 +9 +9 1013.8 983.1
10 15.07 В 3 н/о н/о +10.5 +2.6 58 +9 +9 1013.7 983.1
11 15.07 СВ 3 н/о н/о +10.0 +2.3 59 +8 +8 1013.8 983.1
12 15.07 ЮВ 2-3
{5}
н/о н/о +11.1 +1.5 52 +10 +10 1013.5 982.9
13 15.07 СВ 2 н/о н/о +10.7 +2.1 55 +10 +10 1013.6 983.0
14 15.07 СВ 3-5
{5}
н/о н/о +11.2 +2.4 55 +10 +10 1013.6 983.1
15 15.07 В 2-4
{5}
н/о н/о +11.3 +2.8 56 +10 +10 1013.6 983.1
16 15.07 В 2 н/о н/о +11.1 +2.3 55 +10 +10 1013.8 983.2
17 15.07 В 2 н/о н/о +10.8 +2.4 56 +10 +10 1013.9 983.3
18 15.07 СВ 2-4
{4}
н/о н/о +10.2 +2.7 60 +9 +9 1013.9 983.2 +8.9 +11.7
19 15.07 СВ 2 н/о н/о +9.7 +3.8 67 +8 +8 1014.1 983.4
20 15.07 СВ 2 н/о н/о +8.4 +3.9 73 +7 +7 1014.4 983.6
21 15.07 СВ 3-5
{5}
н/о н/о +8.1 +3.8 74 +6 +6 1014.6 983.7
22 15.07 СВ 2-4
{5}
н/о н/о +7.6 +3.8 77 +6 +6 1014.9 983.9
23 15.07 СВ 2-3
{5}
н/о н/о +7.5 +3.9 78 +6 +6 1015.1 984.1
00 16.07 СВ 2-4
{5}
н/о н/о +7.3 +4.1 80 +5 +5 1015.3 984.2
01 16.07 В 3-5
{7}
н/о н/о +7.1 +4.3 82 +4 +4 1015.4 984.4
02 16.07 СЗ 1 н/о н/о +7.0 +4.5 84 +6 +6 1015.6 984.5
03 16.07 С 1-2
{4}
н/о н/о +7.3 +4.6 83 +6 +6 1015.8 984.7
04 16.07 СВ 2 н/о н/о +7.3 +4.7 84 +5 +5 1016.0 984.9
05 16.07 СВ 3-5
{5}
н/о н/о +7.7 +4.9 82 +5 +5 1016.1 985.1
06 16.07 СВ 2-5
{6}
н/о н/о +8.0 +4.6 79 +6 +6 1015.9 984.9 +6.9 +10.2
07 16.07 В 2-4
{6}
н/о н/о +8.0 +4.7 80 +6 +6 1016.0 985.1
08 16.07 С 2 н/о н/о +8.2 +5.3 82 +6 +6 1016.0 985.1
09 16.07 СВ 2-5
{5}
н/о н/о +9.5 +3.5 66 +8 +8 1015.8 985.0
10 16.07 СВ 3-4
{5}
н/о н/о +9.8 +3.2 63 +8 +8 1015.8 985.0
11 16.07 СВ 2 н/о н/о +9.3 +3.8 68 +8 +8 1015.9 985.0
12 16.07 С 2-4
{5}
н/о н/о +10.8 +3.2 59 +10 +10 1015.3 984.7
14 16.07 С 2-4
{4}
н/о н/о +10.8 +3.3 60 +10 +10 1015.3 984.7
15 16.07 СВ 2-4
{4}
н/о н/о +10.3 +3.3 62 +9 +9 1015.6 984.8
16 16.07 СВ 3 н/о н/о +9.9 +4.2 68 +8 +8 1015.7 984.9
17 16.07 С 3 н/о н/о +9.2 +4.8 74 +7 +7 1015.9 985.0
18 16.07 С 2-5
{5}
н/о н/о +8.3 +5.0 80 +6 +6 1015.8 984.8 +8.0 +11.2
19 16.07 С 2-4
{7}
н/о н/о +7.6 +4.9 83 +6 +6 1015.8 984.8
20 16.07 С 2-5
{6}
н/о н/о +6.6 +4.7 88 +4 +4 1015.8 984.7
21 16.07 СЗ 2-3
{6}
н/о н/о +6.4 +5.0 91 +4 +4 1015.9 984.7
22 16.07 СЗ 2-3
{5}
н/о н/о +6.0 +5.6 97 +3 +3 1015.9 984.8
23 16.07 СЗ 2 н/о н/о +6.1 +5.7 97 +3 +3 1015.7 984.6
00 17.07 С 2-2
{4}
н/о н/о +6.4 +5.4 93 +4 +4 1015.6 984.4
01 17.07 С 1 н/о н/о +6.3 +5.6 95 +5 +5 1015.5 984.3

 

Местоположение метеостанции Инари Раджайосеппи (Финляндия): широта 68.48 долгота 28.30 высота над уровнем моря 253 м.

В архиве по умолчанию представлена погода в Инари Раджайосеппи за последнюю неделю. Архивные данные за месяц целиком и за предыдущие месяцы, начиная с января 2011 года, Вы можете получить, выбрав интересующий диапазон дат из раскрывающегося списка и нажав кнопку "Ввод!".


*Определитесь, кто Вы:
робот инопланетянин человек

Внимание! Время в таблицах - всемирное. Для получения местного времени необходимо прибавить поправку, которая равна 1 ч.

Смотрите также архив погоды в соседних городах и на ближайших метеорологических станциях:

Погода в Верховье Лотты (Мурманская область, Россия) (26 км)
Погода в Саариселькя (Финляндия) (36 км)
Погода в Саариселькя (Финляндия) (37 км)
Погода в Аэропорту Ивало (Финляндия) (39 км)
Погода в Неллиме (Финляндия) (41 км)
Погода в Янискоски (Мурманская область, Россия) (58 км)
Погода в Соданкила Вуотсо (Финляндия) (64 км)
Погода на Острове Сеиталасса (Финляндия) (67 км)
Погода в Соданкила Локка (Финляндия) (77 км)
Погода в Инари Вайла (Финляндия) (81 км)

Пояснения к столбцам:

Ветер - указаны скорость ветра в м/с - средняя за 10 мин, порывы в срок и между сроками (в фигурных скобках) и направление, откуда дует ветер: С - северный, СВ - северо-восточный, В - восточный, ЮВ - юго-восточный, Ю - южный, ЮЗ - юго-западный, З - западный, СЗ - северо-западный.
Видимость - горизонтальная дальность видимости в метрах или километрах. При видимости от 1 до 10 км при отсутствии осадков обычно наблюдается дымка, при ухудшении видимости до 1 км и менее - туман. В сухую погоду видимость может ухудшаться дымом, пылью или мглою.
Явления - указаны атмосферные явления, наблюдавшиеся в срок или в последний час перед сроком; фигурными скобками обозначены явления, наблюдавшиеся между сроками (за 1-3 часа до срока); квадратными скобками обозначены град или гололедные отложения с указанием их диаметра в мм.
Облачность - указаны через наклонную черту общая и нижняя облачность в баллах и высота нижней границы облаков в метрах; квадратными скобками обозначены формы облаков: Ci - перистые, Cs - перисто-слоистые, Cc - перисто-кучевые, Ac - высококучевые, As - высокослоистые, Sc - слоисто-кучевые, Ns - слоисто-дождевые, Cu - кучевые, Cb - кучево-дождевые. Подробнее классификацию облаков см. в Атласе облаков (PDF).
T - Температура воздуха - температура, измеренная на высоте 2 м над землей.
Td - Температура точки росы - температура, при понижении до которой содержащийся в воздухе водяной пар достигнет насыщения.
f - Относительная влажность воздуха - влажноcть воздуха, измеренная на высоте 2 м над землей.
Te - Эффективная температура - температура, которую ощущает одетый по сезону человек в тени. Характеристика душности погоды. При расчете учитывается влияние влажности воздуха и скорости ветра на теплоощущения человека.
Tes - Эффективная температура на солнце - температура, которую ощущает человек, с поправкой на солнечный нагрев. Характеристика знойности погоды. Зависит от высоты солнца над горизонтом, облачности и скорости ветра. Ночью, в пасмурную погоду, а также при ветре 12 м/с и более поправка равна нулю.
P - Атмосферное давление - приведенное к уровню моря атмосферное давление.
Po - Атмосферное давление - измеренное на уровне метеостанции атмосферное давление.
Tmin - Минимальная температура - минимум температуры воздуха на высоте 2 м над землей.
Tmax - Максимальная температура - максимум температуры воздуха на высоте 2 м над землей.
R - Количество осадков - Количество выпавших осадков за период времени, мм. При наведении курсора мыши на число - период времени, за который выпало указанное количество осадков.
R24 - Количество осадков - Количество выпавших осадков за 24 часа, мм.
S - Снежный покров - Высота снежного покрова, см. При наведении курсора мыши на число - состояние снежного покрова и степень покрытия местности в баллах.